Regional Weather Roundup
Issued by NWS

Home | Current Version | Previous Version | Graphics & Text | Print | Product List | Glossary On
Versions: 1 2 3 4 5 6 7 8 9 10 11 12 13 14 15 16 17 18 19 20 21 22 23 24 25 26 27
000
ASUS45 KPSR 270710
RWRAZ

ARIZONA HOURLY REGIONAL WEATHER ROUNDUP
NATIONAL WEATHER SERVICE PHOENIX AZ
1200 AM MST WED JUL 27 2016

NOTE: FAIR INDICATES FEW OR NO CLOUDS BELOW 12,000 FEET WITH NO
SIGNIFICANT WEATHER AND/OR OBSTRUCTIONS TO VISIBILITY.

AZZ001>003-036-270800-
NORTHWEST ARIZONA

CITY           SKY/WX    TMP DP  RH WIND       PRES   REMARKS
BULLHEAD CITY  CLEAR    104  55  20 S15       29.71S HX 103
KINGMAN        CLEAR     88  51  28 S12       29.99R
$$

AZZ004>008-015-016-018-270800-
NORTH CENTRAL ARIZONA

CITY           SKY/WX    TMP DP  RH WIND       PRES   REMARKS
GRAND CANYON   CLEAR     58  43  57 CALM      30.28F HAZE
WILLIAMS       PTCLDY    64  55  72 S8        30.36S
PRESCOTT       MOCLDY    75  57  53 S6        30.14F
FLAGSTAFF      MOCLDY    60  55  83 CALM      30.32S
PAYSON         MOCLDY    79  48  34 NE5       30.17F
PAGE           CLEAR     84  43  23 CALM      30.05R
$$

AZZ009>014-017-270800-
NORTHEAST ARIZONA

CITY           SKY/WX    TMP DP  RH WIND       PRES   REMARKS
WINSLOW        MOCLDY    77  52  41 SW9       30.12F
SAINT JOHNS    CLOUDY    69  56  62 S6        30.19F
WINDOW ROCK    MOCLDY    74  49  41 CALM      30.30R
SHOW LOW       MOCLDY    66  50  55 CALM      30.26F HAZE
$$

AZZ023-270800-
GREATER PHOENIX AREA

CITY           SKY/WX    TMP DP  RH WIND       PRES   REMARKS
PHOENIX        PTCLDY    96  64  34 S13       29.77R
BUCKEYE        PTCLDY    93  59  31 SW9       29.79R
LUKE AFB       PTCLDY   100  59  26 S13       29.75S HX 100
DEER VALLEY    PTCLDY    99  57  24 SW9       29.79S
SCOTTSDALE     PTCLDY    97  59  28 SE13G20   29.82R
MESA-GATEWAY   PTCLDY    93  64  38 S18       29.83R
$$

AZZ027-028-270800-
SOUTHWEST MARICOPA COUNTY AND PINAL COUNTY

CITY           SKY/WX    TMP DP  RH WIND       PRES   REMARKS
CASA GRANDE    MOCLDY    91  64  40 S14       29.86F
GILA BEND      FAIR      97  61  29 S12       29.77S
$$

AZZ503-504-507>509-270800-
SOUTHEAST ARIZONA

CITY           SKY/WX    TMP DP  RH WIND       PRES   REMARKS
TUCSON         CLOUDY    79  66  64 S13       29.98S
DAVIS-MONTHAN  MOCLDY    77  68  75 S8        29.97S
NOGALES        CLOUDY    72  67  84 N5        30.07F
SIERRA VISTA   CLOUDY    76  58  54 W13       30.13S
DOUGLAS        MOCLDY    77  59  53 NW10      30.07R
SAFFORD        CLOUDY    86  62  44 CALM      29.96R
$$

AZZ020-021-025-026-031-270800-
SOUTHWEST ARIZONA

CITY           SKY/WX    TMP DP  RH WIND       PRES   REMARKS
YUMA           CLEAR     91  66  43 S7        29.74S
$$

CAZ031-033-041-043-047-048-061-270800-
SOUTHERN CALIFORNIA

CITY           SKY/WX    TMP DP  RH WIND       PRES   REMARKS
DOWNTOWN L.A.  CLEAR     71  64  78 CALM      29.88S
L.A. AIRPORT   PTCLDY    70  63  78 SW5       29.89S
SAN DIEGO      PTCLDY    70  65  84 NW6       29.90S
BURBANK        CLEAR     75  62  64 E6        29.89S
ONTARIO        CLEAR     79  51  37 S5        29.91S
RIVERSIDE      CLEAR     79  51  37 SW5       29.90F
PALM SPRINGS   PTCLDY    98  52  21 CALM      29.77R
EL CENTRO NAS  CLEAR     95  54  25 W7        29.73S
IMPERIAL       CLEAR     94  61  33 W7        29.70F
BLYTHE         CLEAR    102  60  25 SW12      29.73S HX 103
$$

NVZ020-UTZ003-270800-
SOUTHERN NEVADA-UTAH

CITY           SKY/WX    TMP DP  RH WIND       PRES   REMARKS
LAS VEGAS      PTCLDY    98  40  13 S5        29.78S
SALT LAKE CITY CLEAR     80  32  17 SE8       30.04R
$$

NMZ009-TXZ055-270800-
NEW MEXICO-WEST TEXAS

CITY           SKY/WX    TMP DP  RH WIND       PRES   REMARKS
ALBUQUERQUE    CLOUDY    75  58  55 SE9       30.21S
EL PASO        MOCLDY    81  59  47 NE8       30.06S
$$


........................KEY........................
SKY/WX - SKY CONDITION/WEATHER
TMP    - TEMPERATURE IN FAHRENHEIT
DP     - DEW POINT IN FAHRENHEIT
RH     - RELATIVE HUMIDITY IN PERCENT
WIND   - DIRECTION AND SPEED IN MILES PER HOUR (MPH)
VRB    - VARIABLE WIND DIRECTION
PRES   - MEAN SEA LEVEL PRESSURE IN INCHES OF MERCURY
         F - FALLING PRESSURE   R - RISING PRESSURE
         S - STEADY PRESSURE
VSB    - VISIBILITY IN MILES
HX     - HEAT INDEX IN FAHRENHEIT
WCI    - WIND CHILL INDEX IN FAHRENHEIT
TC     - TEMPERATURE IN CELSIUS WHICH IS ALSO KNOWN AS
         TEMPERATURE IN CENTIGRADE
AFB    - AIR FORCE BASE
         LUKE AFB IS LUKE AIR FORCE BASE
         DAVIS-MONTHAN IS DAVIS-MONTHAN AIR FORCE BASE
NAS    - NAVAL AIR STATION
         EL CENTRO NAS IS EL CENTRO NAVAL AIR STATION
N/A    - NOT AVAILABLE





USA.gov is the U.S. government's official web portal to all federal, state and local government web resources and services.